Location: Clanezzo
(45.7500°N, 9.6000°E)
Time: 22:53:16
(UTC+00:00)

Tiros 1 - All Passes

Search period start: 28 May 2022 00:00
Search period end: 07 June 2022 00:00
Orbit: 629 x 663 km, 48.4° (Epoch: 28 May)

Date Brightness Start Highest point End Pass type
(mag) Time Alt. Az. Time Alt. Az. Time Alt. Az.
28 May - 00:02:06 10° WSW 00:06:43 69° SSE 00:11:21 10° ENE visible
28 May - 01:44:23 10° W 01:48:59 64° N 01:53:39 10° ENE visible
28 May - 03:26:46 10° WNW 03:31:27 78° NNE 03:36:10 10° ESE daylight
28 May - 05:09:06 10° WNW 05:13:28 39° SSW 05:17:53 10° SE daylight
28 May - 22:46:16 10° SSW 22:50:30 36° SE 22:54:46 10° E visible
29 May - 00:27:49 10° WSW 00:32:28 80° NNW 00:37:09 10° ENE visible
29 May - 02:10:17 10° WNW 02:14:54 63° N 02:19:35 10° E visible
29 May - 03:52:33 10° WNW 03:57:13 73° SSW 04:01:56 10° ESE daylight
29 May - 05:35:22 10° W 05:38:53 21° SW 05:42:25 10° S daylight
29 May - 21:31:28 10° S 21:34:31 18° SE 21:37:35 10° E visible
29 May - 23:11:29 10° SW 23:16:04 65° SSE 23:20:40 10° ENE visible
30 May - 00:53:43 10° W 00:58:19 64° N 01:02:59 10° ENE visible
30 May - 02:36:07 10° WNW 02:40:47 76° NNE 02:45:29 10° E visible
30 May - 04:18:25 10° WNW 04:22:50 42° SSW 04:27:17 10° SE daylight
30 May - 21:55:44 10° SSW 21:59:53 34° SE 22:04:03 10° E visible
30 May - 23:37:10 10° WSW 23:41:48 83° NNW 23:46:29 10° ENE visible
31 May - 01:19:37 10° WNW 01:24:14 62° N 01:28:53 10° E visible
31 May - 03:01:55 10° WNW 03:06:35 77° SSW 03:11:16 10° ESE daylight
31 May - 04:44:37 10° W 04:48:17 23° SW 04:51:57 10° S daylight
31 May - 20:41:07 10° S 20:43:55 16° SE 20:46:45 10° E visible
31 May - 22:20:53 10° SW 22:25:25 61° SSE 22:30:01 10° ENE visible
01 Jun - 00:03:03 10° W 00:07:39 66° N 00:12:18 10° ENE visible
01 Jun - 01:45:28 10° WNW 01:50:07 73° NNE 01:54:49 10° E visible
01 Jun - 03:27:45 10° WNW 03:32:12 45° SSW 03:36:41 10° SE daylight
01 Jun - 05:12:27 10° WSW 05:13:31 11° SW 05:14:37 10° SW daylight
01 Jun - 21:05:11 10° SSW 21:09:16 31° SE 21:13:21 10° E visible
01 Jun - 22:46:30 10° WSW 22:51:08 87° NNW 22:55:48 10° ENE visible
02 Jun - 00:28:58 10° W 00:33:34 62° N 00:38:11 10° E visible
02 Jun - 02:11:15 10° WNW 02:15:55 81° SSW 02:20:36 10° ESE visible
02 Jun - 03:53:53 10° W 03:57:40 24° SW 04:01:27 10° SSE daylight
02 Jun - 19:50:46 10° SSE 19:53:20 15° SE 19:55:52 10° E visible
02 Jun - 21:30:16 10° SW 21:34:47 57° SSE 21:39:20 10° ENE visible
02 Jun - 23:12:22 10° W 23:16:59 67° N 23:21:37 10° ENE visible
03 Jun - 00:54:49 10° WNW 00:59:27 71° NNE 01:04:07 10° E visible
03 Jun - 02:37:05 10° WNW 02:41:34 48° SSW 02:46:04 10° SE visible
03 Jun - 04:21:14 10° WSW 04:22:56 12° SW 04:24:38 10° SSW daylight
03 Jun - 20:14:40 10° SSW 20:18:38 29° SE 20:22:38 10° E visible
03 Jun - 21:55:51 10° WSW 22:00:29 90° NNW 22:05:08 10° ENE visible
03 Jun - 23:38:17 10° W 23:42:53 62° N 23:47:29 10° E visible
04 Jun - 01:20:36 10° WNW 01:25:15 84° SSW 01:29:56 10° ESE visible
04 Jun - 03:03:10 10° W 03:07:02 26° SW 03:10:56 10° SSE daylight
04 Jun - 19:00:30 10° SSE 19:02:44 13° SE 19:04:58 10° ESE daylight
04 Jun - 20:39:39 10° SW 20:44:09 53° SSE 20:48:39 10° ENE visible
04 Jun - 22:21:42 10° W 22:26:18 68° N 22:30:56 10° ENE visible
05 Jun - 00:04:09 10° WNW 00:08:46 69° N 00:13:25 10° E visible
05 Jun - 01:46:25 10° WNW 01:50:55 52° SSW 01:55:27 10° SE visible
05 Jun - 03:30:13 10° WSW 03:32:20 13° SW 03:34:26 10° SSW daylight
05 Jun - 19:24:08 10° SSW 19:28:01 27° SE 19:31:54 10° E daylight
05 Jun - 21:05:11 10° WSW 21:09:49 86° SSE 21:14:28 10° ENE visible
05 Jun - 22:47:36 10° W 22:52:12 62° N 22:56:48 10° E visible
06 Jun - 00:29:57 10° WNW 00:34:35 88° SSW 00:39:16 10° ESE visible
06 Jun - 02:12:27 10° W 02:16:25 28° SW 02:20:24 10° SSE visible
06 Jun - 18:10:17 10° SSE 18:12:08 12° SE 18:13:58 10° ESE daylight
06 Jun - 19:49:02 10° SW 19:53:30 50° SSE 19:57:58 10° ENE visible
06 Jun - 21:31:00 10° W 21:35:37 70° N 21:40:14 10° ENE visible
06 Jun - 23:13:28 10° WNW 23:18:06 68° N 23:22:43 10° E visible
